YAMAL 300K

Last updated on Nov. 18, 2019, 4:21 a.m. UTC

1 38978U 12061B   19321.12386425  .00000079  00000-0  00000+0 0  9997
2 38978   0.0122 289.0815 0000277   1.1709 353.1997  1.00268554 25767
UTC
Height (km)
Latitude
Longitude
Inclination
Orbital Period
UTC large
Height (km)
Speed (km/s)
/
Latitude / Longitude
Inclination (degrees)
Orbital Period (minutes)
Azimuth
Elevation
Range (km)
Doppler Factor
iOS Compass Heading
iOS Angle

Next 30 passes for location: Hong Kong

Rise time Rise Azimuth (degrees) Set time Set Azimuth (degrees) Duration Max altitude (degrees)

No matching passes for this satellites